Flag for Belgium Weather past 2 weeks in Liège, Belgium

Now
39 °F

Passing clouds.


Feels Like: 33 °F
Forecast: 36 / 45 °F
Wind: 9 mph from Northwest

Location: Bierset

Current Time: Mar 4, 2015 at 8:39:44 PM

Latest Report: Mar 4, 2015 at 7:50 PM


Visibility: N/A

Pressure: 30.45 "Hg

Humidity: 75%

Dew point: 32 °F

Location of LiègeLocation

Historic Weather in Liège — Graph

°F

Liège temperature yesterday

Maximum temperature yesterday: 46 °F (at 12:20 PM)
Minimum temperature yesterday: 36 °F (at 12:20 AM)
Average temperature yesterday: 39 °F

Past Weeks' High & Low Weather Summary

 TemperatureHumidityPressure
High50 °F (Mar 1, 11:50 AM)100% (Feb 18, 4:50 AM)30.74 "Hg (Feb 18, 4:50 AM)
Low30 °F (Feb 18, 4:50 AM)49% (Feb 28, 3:50 PM)29.36 "Hg (Feb 23, 3:20 PM)
Average39 °F82%29.93 "Hg
* Reported Feb 17 7:20 PM — Mar 4 7:20 PM, Liège, Weather by CustomWeather, © 2015

Note: Actual official high and low records may vary slightly from our data, if they occured in-between our weather recording intervals... More about our weather records

Advertising

Liège weather history for previous 24 hours

 ConditionsComfort  
Time TempWeatherWind HumidityBarometerVisibility
7:20 PM
Wed, Mar 4
41 °FPassing clouds.7 mph76%30.42 "HgN/A
6:50 PM41 °FPassing clouds.8 mph76%30.42 "HgN/A
6:20 PM41 °FScattered clouds.10 mph76%30.39 "HgN/A
5:50 PM41 °FPassing clouds.9 mph76%30.39 "HgN/A
5:20 PM41 °FScattered clouds.10 mph76%30.36 "HgN/A
4:50 PM41 °FPartly sunny.13 mph76%30.36 "HgN/A
4:20 PM41 °FScattered clouds.14 mph70%30.33 "HgN/A
3:50 PM43 °FPassing clouds.14 mph66%30.33 "HgN/A
3:20 PM43 °FScattered clouds.14 mph71%30.33 "HgN/A
2:50 PM41 °FSprinkles. Passing clouds.13 mph70%30.30 "HgN/A
2:20 PM43 °FPassing clouds.14 mph66%30.30 "HgN/A
1:50 PM43 °FScattered clouds.15 mph66%30.30 "HgN/A
1:20 PM43 °FScattered clouds.14 mph71%30.30 "HgN/A
12:50 PM43 °FPassing clouds.16 mph71%30.30 "HgN/A
12:20 PM41 °FScattered clouds.15 mph81%30.30 "HgN/A
11:50 AM41 °FPartly sunny.15 mph76%30.30 "HgN/A
11:20 AM41 °FScattered clouds.16 mph81%30.27 "HgN/A
10:50 AM39 °FScattered clouds.15 mph81%30.27 "HgN/A
10:20 AM39 °FPassing clouds.14 mph81%30.27 "HgN/A
9:50 AM37 °FPassing clouds.14 mph87%30.27 "HgN/A
9:20 AM37 °FPassing clouds.14 mph81%30.24 "HgN/A
8:50 AM36 °FPassing clouds.13 mph81%30.24 "HgN/A
8:20 AM34 °FPassing clouds.12 mph87%30.24 "HgN/A
7:50 AM34 °FPassing clouds.12 mph87%30.21 "HgN/A
7:20 AM32 °FSunny.10 mph93%30.21 "Hg10 mi
6:50 AM34 °FClear.13 mph87%30.21 "Hg10 mi
6:20 AM34 °FClear.12 mph81%30.21 "Hg10 mi
5:50 AM34 °FClear.13 mph87%30.18 "Hg10 mi
5:20 AM34 °FClear.12 mph87%30.18 "Hg10 mi
4:50 AM34 °FClear.12 mph87%30.18 "Hg10 mi
4:20 AM34 °FClear.12 mph87%30.18 "Hg10 mi
3:50 AM34 °FClear.13 mph87%30.18 "Hg10 mi
3:20 AM34 °FPassing clouds.12 mph87%30.18 "HgN/A
2:50 AM36 °FPassing clouds.13 mph81%30.18 "HgN/A
2:20 AM36 °FPassing clouds.14 mph87%30.15 "HgN/A
1:50 AM36 °FPassing clouds.12 mph87%30.15 "HgN/A
1:20 AM36 °FPassing clouds.10 mph87%30.15 "HgN/A
12:50 AM37 °FPassing clouds.10 mph87%30.15 "HgN/A
12:20 AM37 °FPassing clouds.12 mph87%30.12 "HgN/A
11:50 PM
Tue, Mar 3
37 °FPassing clouds.14 mph87%30.12 "HgN/A
11:20 PM37 °FPassing clouds.14 mph87%30.12 "HgN/A
10:50 PM37 °FPassing clouds.13 mph87%30.12 "HgN/A
10:20 PM39 °FPassing clouds.12 mph81%30.09 "HgN/A
9:50 PM39 °FPassing clouds.5 mph81%30.09 "HgN/A
9:20 PM39 °FPassing clouds.6 mph81%30.09 "HgN/A
8:20 PM39 °FPassing clouds.12 mph87%30.07 "HgN/A
Weather by CustomWeather, © 2015

See weather overviewHow to use our weather pages